owner,sensor,date,latitude,longitude,air_pressure(mBar),qcFlag 
WAVCIS,ioos:station:WAVCIS:CSI03:1,2009-09-01T00:00:00Z,29.4412,-92.0613,1014.07,11111222 
WAVCIS,ioos:station:WAVCIS:CSI03:1,2009-09-01T01:00:00Z,29.4412,-92.0613,1014.47,11111222 
WAVCIS,ioos:station:WAVCIS:CSI03:1,2009-09-01T02:00:00Z,29.4412,-92.0613,1014.77,11111222 
WAVCIS,ioos:station:WAVCIS:CSI03:1,2009-09-01T03:00:00Z,29.4412,-92.0613,1015.15,11111222 
WAVCIS,ioos:station:WAVCIS:CSI03:1,2009-09-01T04:00:00Z,29.4412,-92.0613,1015.12,11111222 
WAVCIS,ioos:station:WAVCIS:CSI03:1,2009-09-01T05:00:00Z,29.4412,-92.0613,1014.99,11111222 
WAVCIS,ioos:station:WAVCIS:CSI03:1,2009-09-01T06:00:00Z,29.4412,-92.0613,1014.81,11111222 
WAVCIS,ioos:station:WAVCIS:CSI03:1,2009-09-01T07:00:00Z,29.4412,-92.0613,1014.85,11111222 
WAVCIS,ioos:station:WAVCIS:CSI03:1,2009-09-01T08:00:00Z,29.4412,-92.0613,1015.05,11111222 
WAVCIS,ioos:station:WAVCIS:CSI03:1,2009-09-01T09:00:00Z,29.4412,-92.0613,1015.38,11111222 
WAVCIS,ioos:station:WAVCIS:CSI03:1,2009-09-01T10:00:00Z,29.4412,-92.0613,1015.68,11111222 
WAVCIS,ioos:station:WAVCIS:CSI03:1,2009-09-01T11:00:00Z,29.4412,-92.0613,1015.79,11111222 
WAVCIS,ioos:station:WAVCIS:CSI03:1,2009-09-01T12:00:00Z,29.4412,-92.0613,1016.55,11111222 
WAVCIS,ioos:station:WAVCIS:CSI03:1,2009-09-01T13:00:00Z,29.4412,-92.0613,1016.87,11111222 
WAVCIS,ioos:station:WAVCIS:CSI03:1,2009-09-01T14:00:00Z,29.4412,-92.0613,1017.07,11111222 
WAVCIS,ioos:station:WAVCIS:CSI03:1,2009-09-01T15:00:00Z,29.4412,-92.0613,1017.84,11111222 
WAVCIS,ioos:station:WAVCIS:CSI03:1,2009-09-01T16:00:00Z,29.4412,-92.0613,1018.11,11111222 
WAVCIS,ioos:station:WAVCIS:CSI03:1,2009-09-01T17:00:00Z,29.4412,-92.0613,1018.03,11111222 
WAVCIS,ioos:station:WAVCIS:CSI03:1,2009-09-01T18:00:00Z,29.4412,-92.0613,1017.41,11111222 
WAVCIS,ioos:station:WAVCIS:CSI03:1,2009-09-01T19:00:00Z,29.4412,-92.0613,1016.89,11111222 
WAVCIS,ioos:station:WAVCIS:CSI03:1,2009-09-01T20:00:00Z,29.4412,-92.0613,1015.98,11111222 
WAVCIS,ioos:station:WAVCIS:CSI03:1,2009-09-01T21:00:00Z,29.4412,-92.0613,1015.28,11111222 
WAVCIS,ioos:station:WAVCIS:CSI03:1,2009-09-01T22:00:00Z,29.4412,-92.0613,1014.65,11111222 
WAVCIS,ioos:station:WAVCIS:CSI03:1,2009-09-01T23:00:00Z,29.4412,-92.0613,1014.44,11111222 
WAVCIS,ioos:station:WAVCIS:CSI03:1,2009-09-02T00:00:00Z,29.4412,-92.0613,1014.64,11111222 
WAVCIS,ioos:station:WAVCIS:CSI03:1,2009-09-02T01:00:00Z,29.4412,-92.0613,1015.01,11111222 
WAVCIS,ioos:station:WAVCIS:CSI03:1,2009-09-02T02:00:00Z,29.4412,-92.0613,1015.63,11111222 
WAVCIS,ioos:station:WAVCIS:CSI03:1,2009-09-02T03:00:00Z,29.4412,-92.0613,1016.02,11111222 
WAVCIS,ioos:station:WAVCIS:CSI03:1,2009-09-02T04:00:00Z,29.4412,-92.0613,1016.09,11111222 
WAVCIS,ioos:station:WAVCIS:CSI03:1,2009-09-02T05:00:00Z,29.4412,-92.0613,1016.15,11111222 
WAVCIS,ioos:station:WAVCIS:CSI03:1,2009-09-02T06:00:00Z,29.4412,-92.0613,1016.2,11111222 
WAVCIS,ioos:station:WAVCIS:CSI03:1,2009-09-02T07:00:00Z,29.4412,-92.0613,1015.86,11111222 
WAVCIS,ioos:station:WAVCIS:CSI03:1,2009-09-02T08:00:00Z,29.4412,-92.0613,1015.66,11111222 
WAVCIS,ioos:station:WAVCIS:CSI03:1,2009-09-02T09:00:00Z,29.4412,-92.0613,1015.59,11111222 
WAVCIS,ioos:station:WAVCIS:CSI03:1,2009-09-02T10:00:00Z,29.4412,-92.0613,1015.58,11111222 
WAVCIS,ioos:station:WAVCIS:CSI03:1,2009-09-02T11:00:00Z,29.4412,-92.0613,1015.65,11111222 
WAVCIS,ioos:station:WAVCIS:CSI03:1,2009-09-02T12:00:00Z,29.4412,-92.0613,1016.18,11111222 
WAVCIS,ioos:station:WAVCIS:CSI03:1,2009-09-02T13:00:00Z,29.4412,-92.0613,1016.31,11111222 
WAVCIS,ioos:station:WAVCIS:CSI03:1,2009-09-02T14:00:00Z,29.4412,-92.0613,1016.05,11111222 
WAVCIS,ioos:station:WAVCIS:CSI03:1,2009-09-02T15:00:00Z,29.4412,-92.0613,1016.16,11111222 
WAVCIS,ioos:station:WAVCIS:CSI03:1,2009-09-02T16:00:00Z,29.4412,-92.0613,1016.29,11111222 
WAVCIS,ioos:station:WAVCIS:CSI03:1,2009-09-02T17:00:00Z,29.4412,-92.0613,1016.06,11111222 
WAVCIS,ioos:station:WAVCIS:CSI03:1,2009-09-02T18:00:00Z,29.4412,-92.0613,1015.61,11111222 
WAVCIS,ioos:station:WAVCIS:CSI03:1,2009-09-02T19:00:00Z,29.4412,-92.0613,1015.13,11111222 
WAVCIS,ioos:station:WAVCIS:CSI03:1,2009-09-02T20:00:00Z,29.4412,-92.0613,1014.62,11111222 
WAVCIS,ioos:station:WAVCIS:CSI03:1,2009-09-02T21:00:00Z,29.4412,-92.0613,1014.07,11111222 
WAVCIS,ioos:station:WAVCIS:CSI03:1,2009-09-02T22:00:00Z,29.4412,-92.0613,1013.69,11111222 
WAVCIS,ioos:station:WAVCIS:CSI03:1,2009-09-02T23:00:00Z,29.4412,-92.0613,1013.27,11111222 
WAVCIS,ioos:station:WAVCIS:CSI03:1,2009-09-03T00:00:00Z,29.4412,-92.0613,1013.33,11111222 
WAVCIS,ioos:station:WAVCIS:CSI03:1,2009-09-03T01:00:00Z,29.4412,-92.0613,1013.13,11111222 
WAVCIS,ioos:station:WAVCIS:CSI03:1,2009-09-03T02:00:00Z,29.4412,-92.0613,1013.48,11111222 
WAVCIS,ioos:station:WAVCIS:CSI03:1,2009-09-03T03:00:00Z,29.4412,-92.0613,1014.15,11111222 
WAVCIS,ioos:station:WAVCIS:CSI03:1,2009-09-03T04:00:00Z,29.4412,-92.0613,1014.31,11111222 
WAVCIS,ioos:station:WAVCIS:CSI03:1,2009-09-03T05:00:00Z,29.4412,-92.0613,1014.23,11111222 
WAVCIS,ioos:station:WAVCIS:CSI03:1,2009-09-03T06:00:00Z,29.4412,-92.0613,1014.1,11111222 
WAVCIS,ioos:station:WAVCIS:CSI03:1,2009-09-03T07:00:00Z,29.4412,-92.0613,1013.66,11111222 
WAVCIS,ioos:station:WAVCIS:CSI03:1,2009-09-03T08:00:00Z,29.4412,-92.0613,1013.5,11111222 
WAVCIS,ioos:station:WAVCIS:CSI03:1,2009-09-03T09:00:00Z,29.4412,-92.0613,1013.32,11111222 
WAVCIS,ioos:station:WAVCIS:CSI03:1,2009-09-03T10:00:00Z,29.4412,-92.0613,1013.1,11111222 
WAVCIS,ioos:station:WAVCIS:CSI03:1,2009-09-03T11:00:00Z,29.4412,-92.0613,1012.87,11111222 
WAVCIS,ioos:station:WAVCIS:CSI03:1,2009-09-03T12:00:00Z,29.4412,-92.0613,1013.2,11111222 
WAVCIS,ioos:station:WAVCIS:CSI03:1,2009-09-03T13:00:00Z,29.4412,-92.0613,1013.73,11111222 
WAVCIS,ioos:station:WAVCIS:CSI03:1,2009-09-03T14:00:00Z,29.4412,-92.0613,1014.08,11111222 
WAVCIS,ioos:station:WAVCIS:CSI03:1,2009-09-03T15:00:00Z,29.4412,-92.0613,1014.36,11111222 
WAVCIS,ioos:station:WAVCIS:CSI03:1,2009-09-03T16:00:00Z,29.4412,-92.0613,1014.62,11111222 
WAVCIS,ioos:station:WAVCIS:CSI03:1,2009-09-03T17:00:00Z,29.4412,-92.0613,1014.2,11111222 
WAVCIS,ioos:station:WAVCIS:CSI03:1,2009-09-03T18:00:00Z,29.4412,-92.0613,1013.51,11111222 
WAVCIS,ioos:station:WAVCIS:CSI03:1,2009-09-03T19:00:00Z,29.4412,-92.0613,1013.19,11111222 
WAVCIS,ioos:station:WAVCIS:CSI03:1,2009-09-03T20:00:00Z,29.4412,-92.0613,1012.69,11111222 
WAVCIS,ioos:station:WAVCIS:CSI03:1,2009-09-03T21:00:00Z,29.4412,-92.0613,1011.89,11111222 
WAVCIS,ioos:station:WAVCIS:CSI03:1,2009-09-03T22:00:00Z,29.4412,-92.0613,1011.0,11111222 
WAVCIS,ioos:station:WAVCIS:CSI03:1,2009-09-03T23:00:00Z,29.4412,-92.0613,1010.48,11111222 
WAVCIS,ioos:station:WAVCIS:CSI03:1,2009-09-04T00:00:00Z,29.4412,-92.0613,1010.33,11111222 
WAVCIS,ioos:station:WAVCIS:CSI03:1,2009-09-04T01:00:00Z,29.4412,-92.0613,1010.84,11111222 
WAVCIS,ioos:station:WAVCIS:CSI03:1,2009-09-04T02:00:00Z,29.4412,-92.0613,1011.35,11111222 
WAVCIS,ioos:station:WAVCIS:CSI03:1,2009-09-04T03:00:00Z,29.4412,-92.0613,1012.02,11111222 
WAVCIS,ioos:station:WAVCIS:CSI03:1,2009-09-04T04:00:00Z,29.4412,-92.0613,1011.34,11111222 
WAVCIS,ioos:station:WAVCIS:CSI03:1,2009-09-04T05:00:00Z,29.4412,-92.0613,1011.57,11111222 
WAVCIS,ioos:station:WAVCIS:CSI03:1,2009-09-04T06:00:00Z,29.4412,-92.0613,1012.11,11111222 
WAVCIS,ioos:station:WAVCIS:CSI03:1,2009-09-04T07:00:00Z,29.4412,-92.0613,1011.97,11111222 
WAVCIS,ioos:station:WAVCIS:CSI03:1,2009-09-04T08:00:00Z,29.4412,-92.0613,1011.39,11111222 
WAVCIS,ioos:station:WAVCIS:CSI03:1,2009-09-04T09:00:00Z,29.4412,-92.0613,1011.34,11111222 
WAVCIS,ioos:station:WAVCIS:CSI03:1,2009-09-04T10:00:00Z,29.4412,-92.0613,1011.42,11111222 
WAVCIS,ioos:station:WAVCIS:CSI03:1,2009-09-04T11:00:00Z,29.4412,-92.0613,1011.3,11111222 
WAVCIS,ioos:station:WAVCIS:CSI03:1,2009-09-04T12:00:00Z,29.4412,-92.0613,1011.8,11111222 
WAVCIS,ioos:station:WAVCIS:CSI03:1,2009-09-04T13:00:00Z,29.4412,-92.0613,1012.65,11111222 
WAVCIS,ioos:station:WAVCIS:CSI03:1,2009-09-04T14:00:00Z,29.4412,-92.0613,1013.02,11111222 
WAVCIS,ioos:station:WAVCIS:CSI03:1,2009-09-04T15:00:00Z,29.4412,-92.0613,1013.21,11111222 
WAVCIS,ioos:station:WAVCIS:CSI03:1,2009-09-04T16:00:00Z,29.4412,-92.0613,1013.3,11111222 
WAVCIS,ioos:station:WAVCIS:CSI03:1,2009-09-04T17:00:00Z,29.4412,-92.0613,1013.18,11111222 
WAVCIS,ioos:station:WAVCIS:CSI03:1,2009-09-04T18:00:00Z,29.4412,-92.0613,1012.89,11111222 
WAVCIS,ioos:station:WAVCIS:CSI03:1,2009-09-04T19:00:00Z,29.4412,-92.0613,1012.67,11111222 
WAVCIS,ioos:station:WAVCIS:CSI03:1,2009-09-04T20:00:00Z,29.4412,-92.0613,1012.16,11111222 
WAVCIS,ioos:station:WAVCIS:CSI03:1,2009-09-04T21:00:00Z,29.4412,-92.0613,1011.4,11111222 
WAVCIS,ioos:station:WAVCIS:CSI03:1,2009-09-04T22:00:00Z,29.4412,-92.0613,1011.02,11111222 
WAVCIS,ioos:station:WAVCIS:CSI03:1,2009-09-04T23:00:00Z,29.4412,-92.0613,1010.73,11111222 
WAVCIS,ioos:station:WAVCIS:CSI03:1,2009-09-05T00:00:00Z,29.4412,-92.0613,1010.19,11111222 
WAVCIS,ioos:station:WAVCIS:CSI03:1,2009-09-05T01:00:00Z,29.4412,-92.0613,1010.51,11111222 
WAVCIS,ioos:station:WAVCIS:CSI03:1,2009-09-05T02:00:00Z,29.4412,-92.0613,1010.78,11111222 
WAVCIS,ioos:station:WAVCIS:CSI03:1,2009-09-05T03:00:00Z,29.4412,-92.0613,1011.62,11111222 
WAVCIS,ioos:station:WAVCIS:CSI03:1,2009-09-05T04:00:00Z,29.4412,-92.0613,1012.09,11111222 
WAVCIS,ioos:station:WAVCIS:CSI03:1,2009-09-05T05:00:00Z,29.4412,-92.0613,1012.29,11111222 
WAVCIS,ioos:station:WAVCIS:CSI03:1,2009-09-05T06:00:00Z,29.4412,-92.0613,1012.36,11111222 
WAVCIS,ioos:station:WAVCIS:CSI03:1,2009-09-05T07:00:00Z,29.4412,-92.0613,1012.15,11111222 
WAVCIS,ioos:station:WAVCIS:CSI03:1,2009-09-05T08:00:00Z,29.4412,-92.0613,1011.98,11111222 
WAVCIS,ioos:station:WAVCIS:CSI03:1,2009-09-05T09:00:00Z,29.4412,-92.0613,1012.09,11111222 
WAVCIS,ioos:station:WAVCIS:CSI03:1,2009-09-05T10:00:00Z,29.4412,-92.0613,1012.03,11111222 
WAVCIS,ioos:station:WAVCIS:CSI03:1,2009-09-05T11:00:00Z,29.4412,-92.0613,1012.53,11111222 
WAVCIS,ioos:station:WAVCIS:CSI03:1,2009-09-05T12:00:00Z,29.4412,-92.0613,1012.99,11111222 
WAVCIS,ioos:station:WAVCIS:CSI03:1,2009-09-05T13:00:00Z,29.4412,-92.0613,1013.26,11111222 
WAVCIS,ioos:station:WAVCIS:CSI03:1,2009-09-05T14:00:00Z,29.4412,-92.0613,1013.58,11111222 
WAVCIS,ioos:station:WAVCIS:CSI03:1,2009-09-05T15:00:00Z,29.4412,-92.0613,1013.98,11111222 
WAVCIS,ioos:station:WAVCIS:CSI03:1,2009-09-05T16:00:00Z,29.4412,-92.0613,1014.63,11111222 
WAVCIS,ioos:station:WAVCIS:CSI03:1,2009-09-05T17:00:00Z,29.4412,-92.0613,1014.48,11111222 
WAVCIS,ioos:station:WAVCIS:CSI03:1,2009-09-05T18:00:00Z,29.4412,-92.0613,1014.46,11111222 
WAVCIS,ioos:station:WAVCIS:CSI03:1,2009-09-05T19:00:00Z,29.4412,-92.0613,1013.85,11111222 
WAVCIS,ioos:station:WAVCIS:CSI03:1,2009-09-05T20:00:00Z,29.4412,-92.0613,1013.23,11111222 
WAVCIS,ioos:station:WAVCIS:CSI03:1,2009-09-05T21:00:00Z,29.4412,-92.0613,1012.62,11111222 
WAVCIS,ioos:station:WAVCIS:CSI03:1,2009-09-05T22:00:00Z,29.4412,-92.0613,1012.13,11111222 
WAVCIS,ioos:station:WAVCIS:CSI03:1,2009-09-05T23:00:00Z,29.4412,-92.0613,1012.15,11111222 
WAVCIS,ioos:station:WAVCIS:CSI03:1,2009-09-06T00:00:00Z,29.4412,-92.0613,1012.27,11111222 
WAVCIS,ioos:station:WAVCIS:CSI03:1,2009-09-06T01:00:00Z,29.4412,-92.0613,1012.84,11111222 
WAVCIS,ioos:station:WAVCIS:CSI03:1,2009-09-06T02:00:00Z,29.4412,-92.0613,1013.59,11111222 
WAVCIS,ioos:station:WAVCIS:CSI03:1,2009-09-06T03:00:00Z,29.4412,-92.0613,1013.72,11111222 
WAVCIS,ioos:station:WAVCIS:CSI03:1,2009-09-06T04:00:00Z,29.4412,-92.0613,1013.72,11111222 
WAVCIS,ioos:station:WAVCIS:CSI03:1,2009-09-06T05:00:00Z,29.4412,-92.0613,1014.14,11111222 
WAVCIS,ioos:station:WAVCIS:CSI03:1,2009-09-06T06:00:00Z,29.4412,-92.0613,1014.05,11111222 
WAVCIS,ioos:station:WAVCIS:CSI03:1,2009-09-06T07:00:00Z,29.4412,-92.0613,1013.25,11111222 
WAVCIS,ioos:station:WAVCIS:CSI03:1,2009-09-06T08:00:00Z,29.4412,-92.0613,1013.15,11111222 
WAVCIS,ioos:station:WAVCIS:CSI03:1,2009-09-06T09:00:00Z,29.4412,-92.0613,1013.18,11111222 
WAVCIS,ioos:station:WAVCIS:CSI03:1,2009-09-06T10:00:00Z,29.4412,-92.0613,1013.69,11111222 
WAVCIS,ioos:station:WAVCIS:CSI03:1,2009-09-06T11:00:00Z,29.4412,-92.0613,1014.02,11111222 
WAVCIS,ioos:station:WAVCIS:CSI03:1,2009-09-06T12:00:00Z,29.4412,-92.0613,1014.5,11111222 
WAVCIS,ioos:station:WAVCIS:CSI03:1,2009-09-06T13:00:00Z,29.4412,-92.0613,1015.06,11111222 
WAVCIS,ioos:station:WAVCIS:CSI03:1,2009-09-06T14:00:00Z,29.4412,-92.0613,1014.93,11111222 
WAVCIS,ioos:station:WAVCIS:CSI03:1,2009-09-06T15:00:00Z,29.4412,-92.0613,1015.13,11111222 
WAVCIS,ioos:station:WAVCIS:CSI03:1,2009-09-06T16:00:00Z,29.4412,-92.0613,1015.48,11111222 
WAVCIS,ioos:station:WAVCIS:CSI03:1,2009-09-06T17:00:00Z,29.4412,-92.0613,1015.75,11111222 
WAVCIS,ioos:station:WAVCIS:CSI03:1,2009-09-06T18:00:00Z,29.4412,-92.0613,1015.33,11111222 
WAVCIS,ioos:station:WAVCIS:CSI03:1,2009-09-06T19:00:00Z,29.4412,-92.0613,1014.84,11111222 
WAVCIS,ioos:station:WAVCIS:CSI03:1,2009-09-06T20:00:00Z,29.4412,-92.0613,1013.52,11111222 
WAVCIS,ioos:station:WAVCIS:CSI03:1,2009-09-06T21:00:00Z,29.4412,-92.0613,1013.25,11111222 
WAVCIS,ioos:station:WAVCIS:CSI03:1,2009-09-06T22:00:00Z,29.4412,-92.0613,1012.98,11111222 
WAVCIS,ioos:station:WAVCIS:CSI03:1,2009-09-06T23:00:00Z,29.4412,-92.0613,1012.65,11111222 
WAVCIS,ioos:station:WAVCIS:CSI03:1,2009-09-07T00:00:00Z,29.4412,-92.0613,1013.07,11111222 
WAVCIS,ioos:station:WAVCIS:CSI03:1,2009-09-07T01:00:00Z,29.4412,-92.0613,1014.08,11111222 
WAVCIS,ioos:station:WAVCIS:CSI03:1,2009-09-07T02:00:00Z,29.4412,-92.0613,1014.67,11111222 
WAVCIS,ioos:station:WAVCIS:CSI03:1,2009-09-07T03:00:00Z,29.4412,-92.0613,1013.69,11111222 
WAVCIS,ioos:station:WAVCIS:CSI03:1,2009-09-07T04:00:00Z,29.4412,-92.0613,1013.46,11111222 
WAVCIS,ioos:station:WAVCIS:CSI03:1,2009-09-07T05:00:00Z,29.4412,-92.0613,1013.18,11111222 
WAVCIS,ioos:station:WAVCIS:CSI03:1,2009-09-07T06:00:00Z,29.4412,-92.0613,1013.47,11111222 
WAVCIS,ioos:station:WAVCIS:CSI03:1,2009-09-07T07:00:00Z,29.4412,-92.0613,1012.99,11111222 
WAVCIS,ioos:station:WAVCIS:CSI03:1,2009-09-07T08:00:00Z,29.4412,-92.0613,1013.0,11111222 
WAVCIS,ioos:station:WAVCIS:CSI03:1,2009-09-07T09:00:00Z,29.4412,-92.0613,1012.79,11111222 
WAVCIS,ioos:station:WAVCIS:CSI03:1,2009-09-07T10:00:00Z,29.4412,-92.0613,1012.71,11111222 
WAVCIS,ioos:station:WAVCIS:CSI03:1,2009-09-07T11:00:00Z,29.4412,-92.0613,1012.62,11111222 
WAVCIS,ioos:station:WAVCIS:CSI03:1,2009-09-07T12:00:00Z,29.4412,-92.0613,1012.93,11111222 
WAVCIS,ioos:station:WAVCIS:CSI03:1,2009-09-07T13:00:00Z,29.4412,-92.0613,1013.77,11111222 
WAVCIS,ioos:station:WAVCIS:CSI03:1,2009-09-07T14:00:00Z,29.4412,-92.0613,1013.96,11111222 
WAVCIS,ioos:station:WAVCIS:CSI03:1,2009-09-07T15:00:00Z,29.4412,-92.0613,1014.37,11111222 
WAVCIS,ioos:station:WAVCIS:CSI03:1,2009-09-07T16:00:00Z,29.4412,-92.0613,1014.33,11111222 
WAVCIS,ioos:station:WAVCIS:CSI03:1,2009-09-07T17:00:00Z,29.4412,-92.0613,1014.11,11111222 
WAVCIS,ioos:station:WAVCIS:CSI03:1,2009-09-07T18:00:00Z,29.4412,-92.0613,1013.69,11111222 
WAVCIS,ioos:station:WAVCIS:CSI03:1,2009-09-07T19:00:00Z,29.4412,-92.0613,1013.04,11111222 
WAVCIS,ioos:station:WAVCIS:CSI03:1,2009-09-07T20:00:00Z,29.4412,-92.0613,1012.43,11111222 
WAVCIS,ioos:station:WAVCIS:CSI03:1,2009-09-07T21:00:00Z,29.4412,-92.0613,1011.73,11111222 
WAVCIS,ioos:station:WAVCIS:CSI03:1,2009-09-07T22:00:00Z,29.4412,-92.0613,1011.38,11111222 
WAVCIS,ioos:station:WAVCIS:CSI03:1,2009-09-07T23:00:00Z,29.4412,-92.0613,1011.22,11111222 
WAVCIS,ioos:station:WAVCIS:CSI03:1,2009-09-08T00:00:00Z,29.4412,-92.0613,1011.21,11111222 
WAVCIS,ioos:station:WAVCIS:CSI03:1,2009-09-08T01:00:00Z,29.4412,-92.0613,1011.26,11111222 
WAVCIS,ioos:station:WAVCIS:CSI03:1,2009-09-08T02:00:00Z,29.4412,-92.0613,1011.69,11111222 
WAVCIS,ioos:station:WAVCIS:CSI03:1,2009-09-08T03:00:00Z,29.4412,-92.0613,1011.74,11111222 
WAVCIS,ioos:station:WAVCIS:CSI03:1,2009-09-08T04:00:00Z,29.4412,-92.0613,1011.8,11111222 
WAVCIS,ioos:station:WAVCIS:CSI03:1,2009-09-08T05:00:00Z,29.4412,-92.0613,1011.35,11111222 
WAVCIS,ioos:station:WAVCIS:CSI03:1,2009-09-08T06:00:00Z,29.4412,-92.0613,1011.17,11111222 
WAVCIS,ioos:station:WAVCIS:CSI03:1,2009-09-08T07:00:00Z,29.4412,-92.0613,1011.04,11111222 
WAVCIS,ioos:station:WAVCIS:CSI03:1,2009-09-08T08:00:00Z,29.4412,-92.0613,1010.79,11111222 
WAVCIS,ioos:station:WAVCIS:CSI03:1,2009-09-08T09:00:00Z,29.4412,-92.0613,1010.75,11111222 
WAVCIS,ioos:station:WAVCIS:CSI03:1,2009-09-08T10:00:00Z,29.4412,-92.0613,1010.96,11111222 
WAVCIS,ioos:station:WAVCIS:CSI03:1,2009-09-08T11:00:00Z,29.4412,-92.0613,1011.19,11111222 
WAVCIS,ioos:station:WAVCIS:CSI03:1,2009-09-08T12:00:00Z,29.4412,-92.0613,1011.66,11111222 
WAVCIS,ioos:station:WAVCIS:CSI03:1,2009-09-08T13:00:00Z,29.4412,-92.0613,1012.22,11111222 
WAVCIS,ioos:station:WAVCIS:CSI03:1,2009-09-08T14:00:00Z,29.4412,-92.0613,1012.45,11111222 
WAVCIS,ioos:station:WAVCIS:CSI03:1,2009-09-08T15:00:00Z,29.4412,-92.0613,1012.77,11111222 
WAVCIS,ioos:station:WAVCIS:CSI03:1,2009-09-08T16:00:00Z,29.4412,-92.0613,1013.06,11111222 
WAVCIS,ioos:station:WAVCIS:CSI03:1,2009-09-08T17:00:00Z,29.4412,-92.0613,1013.05,11111222 
WAVCIS,ioos:station:WAVCIS:CSI03:1,2009-09-08T18:00:00Z,29.4412,-92.0613,1012.3,11111222 
WAVCIS,ioos:station:WAVCIS:CSI03:1,2009-09-08T19:00:00Z,29.4412,-92.0613,1011.82,11111222 
WAVCIS,ioos:station:WAVCIS:CSI03:1,2009-09-08T20:00:00Z,29.4412,-92.0613,1011.03,11111222 
WAVCIS,ioos:station:WAVCIS:CSI03:1,2009-09-08T21:00:00Z,29.4412,-92.0613,1010.58,11111222 
WAVCIS,ioos:station:WAVCIS:CSI03:1,2009-09-08T22:00:00Z,29.4412,-92.0613,1010.53,11111222 
WAVCIS,ioos:station:WAVCIS:CSI03:1,2009-09-08T23:00:00Z,29.4412,-92.0613,1010.25,11111222 
WAVCIS,ioos:station:WAVCIS:CSI03:1,2009-09-09T00:00:00Z,29.4412,-92.0613,1010.1,11111222 
WAVCIS,ioos:station:WAVCIS:CSI03:1,2009-09-09T01:00:00Z,29.4412,-92.0613,1010.14,11111222 
WAVCIS,ioos:station:WAVCIS:CSI03:1,2009-09-09T02:00:00Z,29.4412,-92.0613,1010.5,11111222 
WAVCIS,ioos:station:WAVCIS:CSI03:1,2009-09-09T03:00:00Z,29.4412,-92.0613,1011.04,11111222 
WAVCIS,ioos:station:WAVCIS:CSI03:1,2009-09-09T04:00:00Z,29.4412,-92.0613,1010.86,11111222 
WAVCIS,ioos:station:WAVCIS:CSI03:1,2009-09-09T05:00:00Z,29.4412,-92.0613,1011.23,11111222 
WAVCIS,ioos:station:WAVCIS:CSI03:1,2009-09-09T06:00:00Z,29.4412,-92.0613,1011.4,11111222 
WAVCIS,ioos:station:WAVCIS:CSI03:1,2009-09-09T07:00:00Z,29.4412,-92.0613,1011.35,11111222 
WAVCIS,ioos:station:WAVCIS:CSI03:1,2009-09-09T08:00:00Z,29.4412,-92.0613,1011.21,11111222 
WAVCIS,ioos:station:WAVCIS:CSI03:1,2009-09-09T09:00:00Z,29.4412,-92.0613,1011.25,11111222 
WAVCIS,ioos:station:WAVCIS:CSI03:1,2009-09-09T10:00:00Z,29.4412,-92.0613,1011.42,11111222 
WAVCIS,ioos:station:WAVCIS:CSI03:1,2009-09-09T11:00:00Z,29.4412,-92.0613,1011.28,11111222 
WAVCIS,ioos:station:WAVCIS:CSI03:1,2009-09-09T12:00:00Z,29.4412,-92.0613,1011.87,11111222 
WAVCIS,ioos:station:WAVCIS:CSI03:1,2009-09-09T13:00:00Z,29.4412,-92.0613,1012.52,11111222 
WAVCIS,ioos:station:WAVCIS:CSI03:1,2009-09-09T14:00:00Z,29.4412,-92.0613,1012.96,11111222 
WAVCIS,ioos:station:WAVCIS:CSI03:1,2009-09-09T15:00:00Z,29.4412,-92.0613,1013.28,11111222 
WAVCIS,ioos:station:WAVCIS:CSI03:1,2009-09-09T16:00:00Z,29.4412,-92.0613,1013.72,11111222 
WAVCIS,ioos:station:WAVCIS:CSI03:1,2009-09-09T17:00:00Z,29.4412,-92.0613,1013.58,11111222 
WAVCIS,ioos:station:WAVCIS:CSI03:1,2009-09-09T18:00:00Z,29.4412,-92.0613,1012.68,11111222 
WAVCIS,ioos:station:WAVCIS:CSI03:1,2009-09-09T19:00:00Z,29.4412,-92.0613,1012.86,11111222 
WAVCIS,ioos:station:WAVCIS:CSI03:1,2009-09-09T20:00:00Z,29.4412,-92.0613,1012.04,11111222 
WAVCIS,ioos:station:WAVCIS:CSI03:1,2009-09-09T21:00:00Z,29.4412,-92.0613,1011.7,11111222 
WAVCIS,ioos:station:WAVCIS:CSI03:1,2009-09-09T22:00:00Z,29.4412,-92.0613,1011.31,11111222 
WAVCIS,ioos:station:WAVCIS:CSI03:1,2009-09-09T23:00:00Z,29.4412,-92.0613,1012.02,11111222 
WAVCIS,ioos:station:WAVCIS:CSI03:1,2009-09-10T00:00:00Z,29.4412,-92.0613,1011.77,11111222 
WAVCIS,ioos:station:WAVCIS:CSI03:1,2009-09-10T01:00:00Z,29.4412,-92.0613,1011.95,11111222 
WAVCIS,ioos:station:WAVCIS:CSI03:1,2009-09-10T02:00:00Z,29.4412,-92.0613,1011.55,11111222 
WAVCIS,ioos:station:WAVCIS:CSI03:1,2009-09-10T03:00:00Z,29.4412,-92.0613,1011.59,11111222 
WAVCIS,ioos:station:WAVCIS:CSI03:1,2009-09-10T04:00:00Z,29.4412,-92.0613,1011.76,11111222 
WAVCIS,ioos:station:WAVCIS:CSI03:1,2009-09-10T05:00:00Z,29.4412,-92.0613,1012.19,11111222 
WAVCIS,ioos:station:WAVCIS:CSI03:1,2009-09-10T06:00:00Z,29.4412,-92.0613,1012.24,11111222 
WAVCIS,ioos:station:WAVCIS:CSI03:1,2009-09-10T07:00:00Z,29.4412,-92.0613,1011.77,11111222 
WAVCIS,ioos:station:WAVCIS:CSI03:1,2009-09-10T08:00:00Z,29.4412,-92.0613,1011.9,11111222 
WAVCIS,ioos:station:WAVCIS:CSI03:1,2009-09-10T09:00:00Z,29.4412,-92.0613,1011.74,11111222 
WAVCIS,ioos:station:WAVCIS:CSI03:1,2009-09-10T10:00:00Z,29.4412,-92.0613,1011.44,11111222 
WAVCIS,ioos:station:WAVCIS:CSI03:1,2009-09-10T11:00:00Z,29.4412,-92.0613,1011.7,11111222 
WAVCIS,ioos:station:WAVCIS:CSI03:1,2009-09-10T12:00:00Z,29.4412,-92.0613,1012.23,11111222 
WAVCIS,ioos:station:WAVCIS:CSI03:1,2009-09-10T13:00:00Z,29.4412,-92.0613,1012.7,11111222 
WAVCIS,ioos:station:WAVCIS:CSI03:1,2009-09-10T14:00:00Z,29.4412,-92.0613,1013.07,11111222 
WAVCIS,ioos:station:WAVCIS:CSI03:1,2009-09-10T15:00:00Z,29.4412,-92.0613,1013.63,11111222 
WAVCIS,ioos:station:WAVCIS:CSI03:1,2009-09-10T16:00:00Z,29.4412,-92.0613,1013.91,11111222 
WAVCIS,ioos:station:WAVCIS:CSI03:1,2009-09-10T17:00:00Z,29.4412,-92.0613,1014.01,11111222 
WAVCIS,ioos:station:WAVCIS:CSI03:1,2009-09-10T18:00:00Z,29.4412,-92.0613,1013.25,11111222 
WAVCIS,ioos:station:WAVCIS:CSI03:1,2009-09-10T19:00:00Z,29.4412,-92.0613,1012.74,11111222 
WAVCIS,ioos:station:WAVCIS:CSI03:1,2009-09-10T20:00:00Z,29.4412,-92.0613,1011.81,11111222 
WAVCIS,ioos:station:WAVCIS:CSI03:1,2009-09-10T21:00:00Z,29.4412,-92.0613,1011.49,11111222 
WAVCIS,ioos:station:WAVCIS:CSI03:1,2009-09-10T22:00:00Z,29.4412,-92.0613,1011.45,11111222 
WAVCIS,ioos:station:WAVCIS:CSI03:1,2009-09-10T23:00:00Z,29.4412,-92.0613,1011.56,11111222 
WAVCIS,ioos:station:WAVCIS:CSI03:1,2009-09-11T00:00:00Z,29.4412,-92.0613,1011.74,11111222 
WAVCIS,ioos:station:WAVCIS:CSI03:1,2009-09-11T01:00:00Z,29.4412,-92.0613,1012.0,11111222 
WAVCIS,ioos:station:WAVCIS:CSI03:1,2009-09-11T02:00:00Z,29.4412,-92.0613,1012.45,11111222 
WAVCIS,ioos:station:WAVCIS:CSI03:1,2009-09-11T03:00:00Z,29.4412,-92.0613,1012.48,11111222 
WAVCIS,ioos:station:WAVCIS:CSI03:1,2009-09-11T04:00:00Z,29.4412,-92.0613,1012.63,11111222 
WAVCIS,ioos:station:WAVCIS:CSI03:1,2009-09-11T05:00:00Z,29.4412,-92.0613,1012.66,11111222 
WAVCIS,ioos:station:WAVCIS:CSI03:1,2009-09-11T06:00:00Z,29.4412,-92.0613,1011.69,11111222 
WAVCIS,ioos:station:WAVCIS:CSI03:1,2009-09-11T07:00:00Z,29.4412,-92.0613,1011.34,11111222 
WAVCIS,ioos:station:WAVCIS:CSI03:1,2009-09-11T08:00:00Z,29.4412,-92.0613,1010.57,11111222 
WAVCIS,ioos:station:WAVCIS:CSI03:1,2009-09-11T09:00:00Z,29.4412,-92.0613,1010.63,11111222 
WAVCIS,ioos:station:WAVCIS:CSI03:1,2009-09-11T10:00:00Z,29.4412,-92.0613,1010.36,11111222 
WAVCIS,ioos:station:WAVCIS:CSI03:1,2009-09-11T11:00:00Z,29.4412,-92.0613,1011.02,11111222 
WAVCIS,ioos:station:WAVCIS:CSI03:1,2009-09-11T12:00:00Z,29.4412,-92.0613,1009.93,11111222 
WAVCIS,ioos:station:WAVCIS:CSI03:1,2009-09-11T13:00:00Z,29.4412,-92.0613,1011.35,11111222 
WAVCIS,ioos:station:WAVCIS:CSI03:1,2009-09-11T14:00:00Z,29.4412,-92.0613,1011.59,11111222 
WAVCIS,ioos:station:WAVCIS:CSI03:1,2009-09-11T15:00:00Z,29.4412,-92.0613,1012.25,11111222 
WAVCIS,ioos:station:WAVCIS:CSI03:1,2009-09-11T16:00:00Z,29.4412,-92.0613,1012.16,11111222 
WAVCIS,ioos:station:WAVCIS:CSI03:1,2009-09-11T17:00:00Z,29.4412,-92.0613,1011.75,11111222 
WAVCIS,ioos:station:WAVCIS:CSI03:1,2009-09-11T18:00:00Z,29.4412,-92.0613,1011.58,11111222 
WAVCIS,ioos:station:WAVCIS:CSI03:1,2009-09-11T19:00:00Z,29.4412,-92.0613,1010.93,11111222 
WAVCIS,ioos:station:WAVCIS:CSI03:1,2009-09-11T20:00:00Z,29.4412,-92.0613,1010.2,11111222 
WAVCIS,ioos:station:WAVCIS:CSI03:1,2009-09-11T21:00:00Z,29.4412,-92.0613,1009.7,11111222 
WAVCIS,ioos:station:WAVCIS:CSI03:1,2009-09-11T22:00:00Z,29.4412,-92.0613,1009.24,11111222 